Weather in selo Belidzhi

Russia / Republic of Dagestan     41°53′27″N   48°24′48″E
temp.,
°C
wind,
m/s
gust,
m/s
humid.,
%
clouds,
%
prec.,
mm/h
press.,
hPa
HPBL,
m
18 april, sun
sun1800:00+12nnw688379 0.0 101973
03:00+12nnw7138484 0.0 1019171
06:00+11nw4888100 0.0 1019130
09:00+12nw2288100 0.0 101834
12:00+11n3491100 0.0 101766
15:00+12nnw56826 0.1 101692
18:00+12nnw6989100 0.1 1018121
21:00+12nw4481100 0.4 101824
19 april, mon
mon1900:00+12nne2279100 0.1 101710
03:00+12nnw3377100 0.1 101718
06:00+12nw3379100 0.0 101719
09:00+12ene337549 0.0 101719
12:00+12e33745 0.0 101744
15:00+12e2383100 0.0 101642
18:00+13se228396 0.0 101623
21:00+12sse3384100 0.0 101628
20 april, tue
tue2000:00+12s337496 0.0 101511
03:00+12se3374100 0.0 101413
06:00+12se2285100 0.0 101514
09:00+12ese2382100 0.0 101420
12:00+11se559184 0.0 1011109
15:00+12ese5789100 0.0 100991
18:00+12ese3487100 0.0 100846
21:00+12ese4686100 0.0 100782
21 april, wed
wed2100:00+12ese4688100 0.0 100666
03:00+12nnw71090100 0.0 1008146
06:00+12nw71088100 0.0 1011132
09:00+12nw71288100 0.0 1014216
12:00+12nw698843 0.0 1015168
15:00+13nnw11188178 0.0 1016237
18:00+13nnw9168140 0.1 1017325
21:00+13nnw9158196 0.1 1019331
22 april, thu
thu2200:00+12nnw71385100 0.0 1020228
03:00+12nnw6108350 0.0 1020178
06:00+12nw5108331 0.0 1021210
09:00+11nnw47840 0.0 1022138
12:00+11nne57840 0.0 1020116
15:00+12nne23865 0.0 102057
18:00+12nw2285100 0.0 102026
21:00+12nw3578100 0.0 102060